Location: Casaglia
(44.0333°N, 11.5167°E)
Time: 09:54:02
(UTC+00:00)

Cosmos 1869 - Pass Details

Date: 07 June 2020
Orbit: 519 x 563 km, 82.5° (Epoch: 04 July)

Event Time Altitude Azimuth Distance (km) Brightness Sun altitude
Rises 01:25:23 0° 348° (NNW) 2,659 7.5 -16.6°
Reaches altitude 10° 01:27:32 10° 345° (NNW) 1,763 6.5 -16.4°
Maximum altitude 01:31:21 63° 265° (W) 585 3.2 -16.0°
Enters shadow 01:33:02 31° 194° (SSW) 938 4.0 -15.9°
